カタログに戻る

SL-12 DEB

LostHEO
NORAD 29449·DEBRIS·🇷🇺 Russia

打ち上げ May 31, 1989 から Baikonur Cosmodrome

Loading…

次のパス (今後24時間)

TLE

古いSource: Space-Track

元期: May 17, 2022, 18:35 UTC

1 29449U 89039CT  22137.77445392 -.00000020  00000-0  00000+0 0  9995
2 29449  61.7598 267.8972 5051358 117.0998  11.0505  4.21335480244045

AllMySatでSL-12 DEBをリアルタイム追跡

Download on the App Store